Voltar ao catálogo

METEOR 1-17 DEB

LostPO
NORAD 57540·DEBRIS·🇷🇺 Russia

Lançado Apr 24, 1974 de Plesetsk Cosmodrome

Loading…

Próximas Passagens (próximas 24 horas)

TLE

ObsoletoSource: Space-Track

Época: Mar 2, 2025, 04:18 UTC

1 57540U 74025F   25061.17951246  .00010842  00000-0  52357-2 0  9997
2 57540  81.2155  34.3875 0012444 140.0291 220.1802 14.18463122 85298

Acompanhe METEOR 1-17 DEB em tempo real com AllMySat

Download on the App Store